LOT3JK EPWA-EDDH

Flight info

Callsign LOT3JK
Flight time 1h 5m
Altitude 38000
Route LOLSI T174 INDIG DCT ALUKA DCT VIBIS L619 BUMIL M748 RARUP RARUP3P
Aircraft B738/M-SDE2E3FGHIJ1RWYZ/HLSB1

Departure

Time 2026-04-22 14:51
Airport Warsaw Chopin Airport (EPWA)

Arrival

Time 2026-04-22 15:57
Airport Hamburg Helmut Schmidt Airport (EDDH)
Time Latitude Longitude Altitude Speed Heading
2026-04-22 14:30 52.17095 20.97071 332 ft 0 kts 74°
2026-04-22 14:43 52.17089 20.97039 330 ft 4 kts 71°
2026-04-22 14:43 52.17083 20.97006 333 ft 4 kts 71°
2026-04-22 14:43 52.17072 20.96970 332 ft 3 kts 62°
2026-04-22 14:44 52.17067 20.96934 333 ft 4 kts 115°
2026-04-22 14:44 52.17085 20.96907 330 ft 4 kts 151°
2026-04-22 14:44 52.17107 20.96887 332 ft 4 kts 151°
2026-04-22 14:44 52.17130 20.96867 330 ft 2 kts 151°
2026-04-22 14:45 52.17132 20.96866 330 ft 0 kts 151°
2026-04-22 14:48 52.17111 20.96885 331 ft 12 kts 151°
2026-04-22 14:48 52.16988 20.96994 332 ft 26 kts 151°
2026-04-22 14:49 52.16812 20.97150 334 ft 32 kts 152°
2026-04-22 14:49 52.16676 20.97067 334 ft 22 kts 211°
2026-04-22 14:49 52.16536 20.97145 334 ft 22 kts 153°
2026-04-22 14:49 52.16430 20.97219 333 ft 8 kts 195°
2026-04-22 14:50 52.16414 20.97165 335 ft 4 kts 290°
2026-04-22 14:50 52.16444 20.97141 335 ft 6 kts 342°
2026-04-22 14:50 52.16471 20.97078 335 ft 8 kts 296°
2026-04-22 14:50 52.16475 20.97064 333 ft 0 kts 295°
2026-04-22 14:51 52.16561 20.96759 336 ft 67 kts 295°
2026-04-22 14:51 52.16852 20.95725 337 ft 131 kts 296°
2026-04-22 14:51 52.17291 20.94180 652 ft 159 kts 295°
2026-04-22 14:51 52.17708 20.92562 1552 ft 155 kts 293°
2026-04-22 14:52 52.18090 20.90899 2380 ft 160 kts 292°
2026-04-22 14:52 52.18193 20.88916 2806 ft 195 kts 270°
2026-04-22 14:52 52.18075 20.86558 3121 ft 219 kts 269°
2026-04-22 14:52 52.17975 20.84052 3715 ft 225 kts 271°
2026-04-22 14:53 52.18128 20.81433 4090 ft 242 kts 285°
2026-04-22 14:53 52.18536 20.78722 4884 ft 249 kts 287°
2026-04-22 14:53 52.18953 20.75974 5795 ft 252 kts 286°
2026-04-22 14:53 52.19365 20.73172 6652 ft 257 kts 287°
2026-04-22 14:54 52.19604 20.70256 7428 ft 268 kts 269°
2026-04-22 14:54 52.19153 20.67302 8221 ft 278 kts 254°
2026-04-22 14:54 52.18476 20.64310 8988 ft 285 kts 253°
2026-04-22 14:54 52.17779 20.61264 9795 ft 290 kts 253°
2026-04-22 14:55 52.17075 20.58144 10449 ft 300 kts 253°
2026-04-22 14:55 52.16336 20.54820 10670 ft 324 kts 253°
2026-04-22 14:55 52.15563 20.51265 11090 ft 339 kts 257°
2026-04-22 14:55 52.15306 20.47473 11754 ft 338 kts 277°
2026-04-22 14:56 52.15470 20.43643 12548 ft 341 kts 278°
2026-04-22 14:56 52.15654 20.39763 13350 ft 346 kts 278°
2026-04-22 14:56 52.15834 20.35883 14116 ft 351 kts 278°
2026-04-22 14:56 52.16012 20.31880 14785 ft 358 kts 278°
2026-04-22 14:57 52.16186 20.27806 15483 ft 364 kts 278°
2026-04-22 14:57 52.16356 20.23667 16201 ft 369 kts 278°
2026-04-22 14:57 52.16524 20.19458 16918 ft 375 kts 278°
2026-04-22 14:57 52.16692 20.15191 17624 ft 381 kts 278°
2026-04-22 14:58 52.16860 20.10856 18314 ft 386 kts 278°
2026-04-22 14:58 52.17028 20.06459 18933 ft 391 kts 278°
2026-04-22 14:58 52.17196 20.02009 19544 ft 396 kts 278°
2026-04-22 14:58 52.17364 19.97561 20150 ft 401 kts 277°
2026-04-22 14:59 52.17534 19.93002 20749 ft 406 kts 277°
2026-04-22 14:59 52.17703 19.88385 21342 ft 411 kts 277°
2026-04-22 14:59 52.17620 19.83687 21916 ft 420 kts 266°
2026-04-22 14:59 52.17209 19.78952 22512 ft 425 kts 263°
2026-04-22 15:00 52.16723 19.74185 23088 ft 429 kts 263°
2026-04-22 15:00 52.16227 19.69361 23643 ft 434 kts 263°
2026-04-22 15:00 52.15744 19.64482 24114 ft 438 kts 263°
2026-04-22 15:00 52.15284 19.59622 24573 ft 442 kts 263°
2026-04-22 15:01 52.14827 19.54656 25050 ft 445 kts 263°
2026-04-22 15:01 52.14372 19.49657 25503 ft 449 kts 264°
2026-04-22 15:01 52.13912 19.44606 25935 ft 453 kts 263°
2026-04-22 15:01 52.13445 19.39512 26371 ft 457 kts 263°
2026-04-22 15:02 52.12970 19.34380 26805 ft 460 kts 263°
2026-04-22 15:02 52.12488 19.29212 27230 ft 464 kts 263°
2026-04-22 15:02 52.11999 19.24002 27654 ft 467 kts 263°
2026-04-22 15:02 52.11505 19.18763 28062 ft 471 kts 263°
2026-04-22 15:03 52.11010 19.13546 28446 ft 474 kts 263°
2026-04-22 15:03 52.10504 19.08228 28832 ft 478 kts 263°
2026-04-22 15:03 52.09992 19.02871 29214 ft 481 kts 263°
2026-04-22 15:03 52.09473 18.97472 29597 ft 484 kts 263°
2026-04-22 15:04 52.08949 18.92041 29942 ft 488 kts 263°
2026-04-22 15:04 52.08419 18.86583 30268 ft 491 kts 262°
2026-04-22 15:04 52.07883 18.81082 30561 ft 494 kts 262°
2026-04-22 15:04 52.07342 18.75566 30855 ft 496 kts 262°
2026-04-22 15:05 52.06802 18.70079 31135 ft 499 kts 262°
2026-04-22 15:05 52.06250 18.64496 31420 ft 501 kts 262°
2026-04-22 15:05 52.05692 18.58891 31697 ft 504 kts 262°
2026-04-22 15:05 52.05130 18.53264 32013 ft 505 kts 262°
2026-04-22 15:06 52.04755 18.49534 32263 ft 505 kts 262°
2026-04-22 15:06 52.03997 18.42020 32805 ft 504 kts 262°
2026-04-22 15:06 52.03427 18.36406 33176 ft 504 kts 262°
2026-04-22 15:06 52.02855 18.30794 33514 ft 504 kts 262°
2026-04-22 15:07 52.02280 18.25178 33867 ft 504 kts 262°
2026-04-22 15:07 52.01711 18.19647 34222 ft 503 kts 262°
2026-04-22 15:07 52.01133 18.14051 34558 ft 502 kts 262°
2026-04-22 15:07 52.00566 18.08476 34938 ft 499 kts 265°
2026-04-22 15:08 52.00393 18.02898 35290 ft 492 kts 276°
2026-04-22 15:08 52.00773 17.97420 35638 ft 486 kts 285°
2026-04-22 15:08 52.01613 17.92148 35944 ft 479 kts 295°
2026-04-22 15:08 52.02874 17.87178 36235 ft 475 kts 298°
2026-04-22 15:09 52.04199 17.82268 36535 ft 474 kts 298°
2026-04-22 15:09 52.05532 17.77378 36838 ft 473 kts 298°
2026-04-22 15:09 52.06838 17.72559 37143 ft 472 kts 298°
2026-04-22 15:09 52.08145 17.67676 37441 ft 470 kts 297°
2026-04-22 15:10 52.09435 17.62798 37741 ft 469 kts 297°
2026-04-22 15:10 52.10715 17.57917 38014 ft 468 kts 297°
2026-04-22 15:10 52.11987 17.53036 38187 ft 470 kts 297°
2026-04-22 15:10 52.13263 17.48121 38161 ft 472 kts 297°
2026-04-22 15:11 52.15799 17.38305 38156 ft 468 kts 297°
2026-04-22 15:11 52.18291 17.28620 38164 ft 465 kts 297°
2026-04-22 15:12 52.20778 17.18920 38162 ft 463 kts 297°
2026-04-22 15:12 52.23250 17.09246 38169 ft 462 kts 297°
2026-04-22 15:13 52.25715 16.99555 38164 ft 463 kts 296°
2026-04-22 15:13 52.28160 16.89903 38166 ft 464 kts 296°
2026-04-22 15:14 52.30628 16.80116 38166 ft 467 kts 296°
2026-04-22 15:14 52.33099 16.70271 38162 ft 469 kts 296°
2026-04-22 15:15 52.35574 16.60367 38166 ft 472 kts 296°
2026-04-22 15:15 52.38035 16.50471 38170 ft 473 kts 296°
2026-04-22 15:16 52.40511 16.40471 38182 ft 474 kts 296°
2026-04-22 15:16 52.42980 16.30453 38186 ft 475 kts 296°
2026-04-22 15:17 52.45442 16.20419 38197 ft 474 kts 296°
2026-04-22 15:17 52.47891 16.10393 38199 ft 473 kts 296°
2026-04-22 15:18 52.50308 16.00452 38199 ft 472 kts 295°
2026-04-22 15:18 52.52727 15.90458 38204 ft 471 kts 295°
2026-04-22 15:19 52.55133 15.80469 38208 ft 470 kts 295°
2026-04-22 15:19 52.57525 15.70497 38213 ft 469 kts 295°
2026-04-22 15:20 52.59907 15.60521 38215 ft 468 kts 295°
2026-04-22 15:20 52.62265 15.50602 38216 ft 469 kts 295°
2026-04-22 15:21 52.64628 15.40610 38220 ft 469 kts 295°
2026-04-22 15:21 52.66986 15.30598 38221 ft 469 kts 295°
2026-04-22 15:22 52.69340 15.20554 38231 ft 470 kts 295°
2026-04-22 15:22 52.71672 15.10555 38232 ft 471 kts 295°
2026-04-22 15:23 52.74017 15.00458 38235 ft 472 kts 295°
2026-04-22 15:23 52.76358 14.90326 38232 ft 473 kts 294°
2026-04-22 15:24 52.78691 14.80178 38239 ft 473 kts 294°
2026-04-22 15:24 52.81004 14.70073 38236 ft 473 kts 294°
2026-04-22 15:25 52.83325 14.59881 38237 ft 474 kts 294°
2026-04-22 15:25 52.85637 14.49680 38245 ft 474 kts 294°
2026-04-22 15:26 52.87944 14.39460 38244 ft 474 kts 294°
2026-04-22 15:26 52.89978 14.29148 38240 ft 478 kts 284°
2026-04-22 15:27 52.90640 14.18160 38245 ft 480 kts 276°
2026-04-22 15:27 52.91053 14.07119 38264 ft 480 kts 276°
2026-04-22 15:28 52.91490 13.96085 38258 ft 480 kts 276°
2026-04-22 15:28 52.91960 13.85061 38262 ft 479 kts 276°
2026-04-22 15:29 52.92429 13.74121 38264 ft 479 kts 276°
2026-04-22 15:30 52.93045 13.59386 38266 ft 479 kts 276°
2026-04-22 15:30 52.93563 13.46596 38268 ft 478 kts 276°
2026-04-22 15:31 52.93996 13.35591 38272 ft 478 kts 276°
2026-04-22 15:31 52.94419 13.24598 38280 ft 478 kts 276°
2026-04-22 15:32 52.94829 13.13681 38280 ft 478 kts 276°
2026-04-22 15:32 52.95233 13.02661 37814 ft 484 kts 275°
2026-04-22 15:32 52.95433 12.97100 37286 ft 481 kts 275°
2026-04-22 15:33 52.95629 12.91563 36693 ft 481 kts 275°
2026-04-22 15:33 52.95822 12.86028 36076 ft 481 kts 275°
2026-04-22 15:33 52.96015 12.80460 35354 ft 485 kts 275°
2026-04-22 15:33 52.96203 12.74936 34699 ft 488 kts 275°
2026-04-22 15:34 52.96391 12.69325 34190 ft 486 kts 274°
2026-04-22 15:34 52.96575 12.63758 33770 ft 480 kts 274°
2026-04-22 15:34 52.96753 12.58264 33447 ft 473 kts 274°
2026-04-22 15:34 52.96927 12.52851 33071 ft 467 kts 274°
2026-04-22 15:35 52.97040 12.49306 32796 ft 464 kts 274°
2026-04-22 15:35 52.97265 12.42194 32234 ft 458 kts 274°
2026-04-22 15:35 52.97426 12.36973 31730 ft 449 kts 274°
2026-04-22 15:35 52.97583 12.31827 31113 ft 445 kts 273°
2026-04-22 15:36 52.97732 12.26798 30525 ft 440 kts 273°
2026-04-22 15:36 52.97880 12.21768 29905 ft 433 kts 273°
2026-04-22 15:36 52.98023 12.16809 29241 ft 427 kts 273°
2026-04-22 15:36 52.98163 12.11916 28575 ft 422 kts 273°
2026-04-22 15:37 52.98299 12.07087 27986 ft 415 kts 273°
2026-04-22 15:37 52.98431 12.02351 27518 ft 406 kts 273°
2026-04-22 15:37 52.98558 11.97703 27097 ft 401 kts 274°
2026-04-22 15:37 52.98684 11.93103 26692 ft 398 kts 273°
2026-04-22 15:38 52.98805 11.88595 26293 ft 395 kts 273°
2026-04-22 15:38 52.99222 11.79582 25521 ft 388 kts 284°
2026-04-22 15:38 52.99902 11.75289 25295 ft 381 kts 288°
2026-04-22 15:39 53.00647 11.71080 24999 ft 378 kts 288°
2026-04-22 15:39 53.01386 11.66894 24639 ft 378 kts 288°
2026-04-22 15:39 53.02109 11.62682 24215 ft 381 kts 287°
2026-04-22 15:39 53.02823 11.58428 23720 ft 384 kts 287°
2026-04-22 15:40 53.03621 11.54206 23162 ft 383 kts 294°
2026-04-22 15:40 53.04796 11.50244 22616 ft 381 kts 301°
2026-04-22 15:40 53.06095 11.46409 22101 ft 380 kts 302°
2026-04-22 15:40 53.07379 11.42640 21570 ft 379 kts 301°
2026-04-22 15:41 53.08675 11.38764 21050 ft 378 kts 301°
2026-04-22 15:41 53.09894 11.34964 20539 ft 377 kts 300°
2026-04-22 15:41 53.11408 11.31456 20036 ft 371 kts 315°
2026-04-22 15:41 53.13219 11.28424 19560 ft 368 kts 318°
2026-04-22 15:42 53.15076 11.25492 19075 ft 367 kts 319°
2026-04-22 15:42 53.16936 11.22588 18597 ft 365 kts 319°
2026-04-22 15:42 53.18791 11.19704 18048 ft 364 kts 319°
2026-04-22 15:42 53.20639 11.16834 17506 ft 362 kts 319°
2026-04-22 15:43 53.21858 11.14944 17164 ft 361 kts 319°
2026-04-22 15:43 53.23691 11.12102 16639 ft 359 kts 319°
2026-04-22 15:43 53.26107 11.08356 15965 ft 356 kts 319°
2026-04-22 15:43 53.27920 11.05545 15459 ft 355 kts 319°
2026-04-22 15:44 53.29720 11.02752 14965 ft 352 kts 319°
2026-04-22 15:44 53.30932 11.00872 14630 ft 351 kts 319°
2026-04-22 15:44 53.32691 10.98141 14153 ft 349 kts 319°
2026-04-22 15:44 53.34462 10.95388 13622 ft 347 kts 319°
2026-04-22 15:45 53.36208 10.92672 13338 ft 337 kts 319°
2026-04-22 15:45 53.37903 10.90028 13066 ft 329 kts 319°
2026-04-22 15:45 53.39560 10.87440 12795 ft 322 kts 319°
2026-04-22 15:45 53.41177 10.84911 12524 ft 315 kts 319°
2026-04-22 15:46 53.43265 10.81643 12180 ft 306 kts 319°
2026-04-22 15:46 53.44310 10.80005 12005 ft 302 kts 319°
2026-04-22 15:46 53.45830 10.77623 11745 ft 297 kts 319°
2026-04-22 15:46 53.47326 10.75277 11490 ft 292 kts 319°
2026-04-22 15:47 53.48778 10.72999 11249 ft 287 kts 319°
2026-04-22 15:47 53.50229 10.70723 10991 ft 283 kts 319°
2026-04-22 15:47 53.51664 10.68475 10746 ft 280 kts 319°
2026-04-22 15:47 53.53082 10.66250 10508 ft 278 kts 319°
2026-04-22 15:48 53.54492 10.64039 10248 ft 277 kts 319°
2026-04-22 15:48 53.55905 10.61826 9858 ft 279 kts 319°
2026-04-22 15:48 53.57329 10.59599 9449 ft 280 kts 319°
2026-04-22 15:48 53.58757 10.57370 9065 ft 280 kts 319°
2026-04-22 15:49 53.60185 10.55146 8680 ft 280 kts 319°
2026-04-22 15:49 53.61616 10.52917 8294 ft 280 kts 319°
2026-04-22 15:49 53.63008 10.50750 7932 ft 280 kts 319°
2026-04-22 15:49 53.64440 10.48521 7558 ft 280 kts 319°
2026-04-22 15:50 53.65860 10.46314 7177 ft 275 kts 319°
2026-04-22 15:50 53.67257 10.44139 6743 ft 271 kts 319°
2026-04-22 15:50 53.68629 10.42000 6307 ft 267 kts 319°
2026-04-22 15:50 53.69981 10.39894 5921 ft 262 kts 319°
2026-04-22 15:51 53.71308 10.37825 5525 ft 258 kts 319°
2026-04-22 15:51 53.72614 10.35785 5166 ft 254 kts 319°
2026-04-22 15:51 53.73918 10.33760 4778 ft 256 kts 319°
2026-04-22 15:51 53.75240 10.31723 4416 ft 258 kts 319°
2026-04-22 15:52 53.76566 10.29663 4027 ft 260 kts 314°
2026-04-22 15:52 53.77392 10.27004 3640 ft 266 kts 281°
2026-04-22 15:52 53.77166 10.23923 3385 ft 268 kts 246°
2026-04-22 15:52 53.75943 10.21668 3426 ft 260 kts 213°
2026-04-22 15:53 53.74385 10.20178 3209 ft 256 kts 215°
2026-04-22 15:53 53.72991 10.18430 2901 ft 244 kts 225°
2026-04-22 15:53 53.71800 10.16510 2623 ft 231 kts 230°
2026-04-22 15:53 53.70769 10.14516 2291 ft 219 kts 234°
2026-04-22 15:54 53.69831 10.12593 2004 ft 206 kts 234°
2026-04-22 15:54 53.68940 10.10780 1750 ft 196 kts 233°
2026-04-22 15:54 53.68086 10.09054 1473 ft 187 kts 234°
2026-04-22 15:54 53.67278 10.07418 1211 ft 177 kts 234°
2026-04-22 15:55 53.66531 10.05904 986 ft 164 kts 233°
2026-04-22 15:55 53.65847 10.04520 783 ft 144 kts 235°
2026-04-22 15:55 53.65230 10.03267 594 ft 139 kts 236°
2026-04-22 15:55 53.64617 10.02024 400 ft 139 kts 236°
2026-04-22 15:56 53.64007 10.00796 230 ft 134 kts 234°
2026-04-22 15:56 53.63422 9.99602 57 ft 126 kts 235°
2026-04-22 15:56 53.62931 9.98608 48 ft 90 kts 230°
2026-04-22 15:56 53.62646 9.98030 48 ft 53 kts 230°
2026-04-22 15:57 53.62460 9.97815 47 ft 16 kts 147°
2026-04-22 15:57 53.62435 9.97966 49 ft 14 kts 81°
2026-04-22 15:57 53.62454 9.98124 49 ft 13 kts 78°
2026-04-22 15:57 53.62474 9.98287 50 ft 16 kts 78°
2026-04-22 15:58 53.62500 9.98508 50 ft 23 kts 79°
2026-04-22 15:58 53.62531 9.98800 50 ft 27 kts 79°
2026-04-22 15:58 53.62566 9.99105 47 ft 26 kts 79°
2026-04-22 15:58 53.62598 9.99390 48 ft 24 kts 79°
2026-04-22 15:59 53.62626 9.99644 49 ft 18 kts 79°
2026-04-22 15:59 53.62675 9.99824 48 ft 17 kts 36°
2026-04-22 15:59 53.62765 9.99926 49 ft 10 kts 30°
2026-04-22 15:59 53.62817 9.99975 49 ft 8 kts 30°
2026-04-22 16:00 53.62824 9.99982 46 ft 0 kts 30°
2026-04-22 16:00 53.62828 9.99986 47 ft 2 kts 31°
2026-04-22 16:00 53.62864 10.00036 49 ft 11 kts 42°
2026-04-22 16:00 53.62918 10.00108 50 ft 3 kts 59°
2026-04-22 16:01 53.62915 10.00143 50 ft 3 kts 109°
2026-04-22 16:01 53.62903 10.00183 48 ft 4 kts 121°
2026-04-22 16:01 53.62893 10.00209 50 ft 0 kts 121°